Temp
5 5 5 5 6 6 6 6 6 6 7 7 7 8 8 8 8 8 8 8 8 8 8 9 9 8 8 9 9 8 7 9 10 11 13 12 13 13 13 13 12 13 13 13 13
5 5 5 5 5 5 5 5 5 5 6 6 7 7 7 8 8 8 8 8 8 8 8 8 8 8 8 8 8 8 8 10 12 11 12 13 13 13 13 13 13 12 12 13 12
4 4 4 4 4 5 5 5 5 4 4 4 5 7 7 7 8 8 8 7 7 7 8 7 8 7 8 8 8 9 9 11 11 11 11 12 12 12 13 13 13 13 13 12 12
3 3 3 3 3 4 4 4 4 4 4 4 4 4 5 5 5 5 6 7 8 7 8 7 7 7 7 8 8 8 9 10 11 10 10 11 12 11 11 13 13 13 14 13 13
2 2 2 3 3 3 3 3 3 3 3 4 4 4 3 3 4 4 6 5 6 7 7 7 7 7 7 8 7 8 9 8 10 10 11 10 12 12 13 12 13 13 13 14 13
2 2 2 2 3 2 2 3 3 3 2 2 3 3 3 2 3 4 4 4 5 5 6 6 7 7 6 6 7 8 7 8 8 9 9 10 11 11 12 13 13 12 13 13 13
1 1 1 1 2 2 2 2 2 2 2 2 2 1 2 1 1 3 3 4 4 4 5 5 5 5 6 6 6 7 6 6 7 8 8 9 10 11 11 12 12 13 13 13 13
1 1 1 1 1 1 2 2 2 2 2 1 0 0 0 -0 -1 -0 1 1 2 3 3 3 3 4 5 5 4 5 5 5 7 7 7 7 10 11 11 11 12 12 12 13 13
1 1 1 1 1 1 1 1 1 1 0 0 -1 -0 -1 -1 -1 -1 -1 -0 -0 2 2 2 1 3 3 3 3 3 4 6 6 6 6 6 10 9 9 10 12 12 12 12 12
1 1 1 1 1 1 1 1 1 -0 -0 -0 -2 -1 -2 -2 -1 -1 -1 -2 -1 -1 1 1 -0 1 1 1 2 3 4 4 4 5 5 6 8 9 9 9 10 11 11 12 12
1 1 1 0 0 0 1 1 1 -0 -1 -2 -3 -3 -3 -2 -2 -2 -2 -1 -2 -2 -2 -1 -1 0 2 2 2 3 3 3 3 4 4 5 7 7 7 9 9 10 11 11 11
1 0 0 -0 -0 -0 -1 -1 -1 -2 -2 -3 -3 -3 -3 -3 -3 -2 -2 -2 -2 -2 -3 -2 -2 -1 -0 -0 1 1 2 2 3 4 4 5 5 6 7 9 9 10 11 11 11
1 0 -0 -1 -1 -1 -1 -1 -1 -2 -2 -3 -3 -3 -3 -3 -2 -3 -3 -2 -2 -2 -2 -2 -2 -1 -1 -1 -0 0 1 1 1 3 4 3 4 6 7 8 9 10 11 11 11
1 0 -0 -1 -1 -1 -1 -2 -2 -2 -3 -3 -2 -3 -2 -3 -2 -2 -3 -3 -3 -2 -2 -2 -2 -1 -1 -1 -1 -0 0 0 1 2 2 4 3 4 7 9 9 9 11 12 11
0 -0 -0 -1 -1 -1 -2 -2 -2 -3 -5 -3 -3 -3 -3 -3 -3 -3 -3 -3 -2 -2 -2 -2 -2 -1 -1 -1 -1 -0 -0 0 1 1 1 2 3 6 7 8 10 11 11 11 11
-0 -0 -0 -1 -1 -2 -2 -2 -2 -3 -6 -3 -3 -4 -3 -4 -3 -3 -3 -3 -3 -3 -3 -2 -2 -1 -1 -1 -1 -0 0 1 1 1 -0 1 2 4 6 9 10 11 12 12 12
-1 -0 -1 -1 -2 -2 -2 -2 -3 -4 -4 -5 -4 -4 -4 -4 -3 -3 -3 -3 -3 -3 -3 -3 -2 -1 -1 -1 -1 -0 -0 -2 -2 -2 -1 3 2 5 10 8 8 8 9 10 10
-1 -1 -1 -1 -2 -2 -2 -3 -3 -5 -5 -5 -5 -4 -4 -5 -3 -4 -4 -3 -3 -4 -4 -3 -2 -2 -1 -1 -1 -1 -0 -1 -1 -2 -1 2 2 3 5 9 7 8 10 10 10
-1 -1 -1 -1 -2 -2 -3 -3 -5 -6 -6 -6 -5 -5 -5 -5 -5 -4 -3 -4 -4 -4 -5 -4 -3 -3 -2 -1 -1 -1 -0 1 0 1 0 2 3 4 5 6 9 8 9 9 10
-1 -1 -2 -2 -2 -2 -3 -4 -5 -5 -6 -6 -6 -6 -6 -5 -5 -5 -4 -4 -4 -5 -5 -5 -4 -4 -3 -1 -1 -1 -0 0 0 -1 -1 1 3 4 6 6 9 8 8 10 11
-1 -1 -2 -2 -2 -3 -4 -4 -5 -5 -5 -6 -6 -6 -6 -6 -6 -6 -4 -4 -4 -4 -5 -4 -4 -2 -2 -2 -1 -1 -1 0 0 1 -1 -0 3 5 6 6 7 7 8 9 10
-2 -2 -2 -3 -3 -3 -4 -5 -5 -5 -5 -6 -6 -6 -6 -6 -6 -6 -5 -4 -5 -5 -4 -5 -5 -4 -2 -2 -2 -2 -1 -1 -0 -0 1 1 1 5 5 5 6 7 8 9 10
-2 -2 -3 -3 -4 -3 -4 -4 -5 -5 -5 -6 -6 -6 -6 -6 -6 -6 -5 -5 -5 -6 -5 -5 -5 -5 -3 -3 -2 -2 -1 -1 -1 -1 -1 -1 2 4 5 6 6 7 8 9 10
-2 -3 -3 -4 -4 -4 -4 -4 -5 -6 -6 -6 -6 -6 -6 -6 -6 -6 -6 -5 -5 -5 -5 -6 -5 -5 -5 -4 -4 -3 -3 -2 -2 -2 -1 -1 0 2 4 5 6 8 7 8 10
-3 -4 -4 -4 -4 -4 -4 -5 -6 -6 -7 -6 -6 -7 -7 -6 -7 -6 -6 -6 -6 -6 -5 -6 -6 -6 -5 -4 -4 -4 -3 -2 -3 -3 -3 -0 -0 0 3 3 3 5 6 7 10
-4 -4 -4 -4 -4 -4 -5 -5 -6 -7 -7 -7 -6 -7 -7 -7 -7 -7 -7 -7 -6 -6 -6 -6 -6 -6 -6 -5 -4 -4 -4 -3 -2 -2 -3 -3 -2 -1 2 2 3 4 6 7 8
-3 -4 -4 -4 -4 -5 -5 -5 -5 -7 -6 -6 -7 -7 -6 -5 -5 -5 -5 -5 -6 -6 -6 -6 -6 -6 -5 -5 -5 -5 -3 -2 -1 -2 -3 -3 -1 1 2 2 3 4 6 6 8
Height
3102 3101 3100 3098 3097 3096 3095 3094 3094 3093 3092 3092 3091 3091 3092 3093 3095 3097 3101 3106 3106 3109 3109 3113 3115 3118 3119 3119 3122 3123 3120 3117 3118 3120 3126 3132 3135 3135 3137 3137 3137 3140 3141 3141 3144
3099 3098 3096 3094 3092 3091 3090 3089 3088 3087 3086 3085 3084 3084 3084 3083 3085 3089 3092 3095 3098 3099 3101 3105 3109 3110 3110 3112 3114 3113 3110 3110 3117 3120 3124 3128 3128 3131 3132 3133 3136 3138 3139 3140 3140
3096 3094 3093 3091 3089 3088 3086 3084 3083 3082 3081 3079 3077 3076 3076 3074 3077 3079 3081 3084 3087 3089 3093 3096 3101 3101 3100 3103 3105 3104 3099 3111 3113 3116 3120 3122 3121 3124 3124 3126 3132 3133 3134 3136 3138
3094 3092 3090 3089 3087 3085 3083 3082 3080 3078 3075 3072 3069 3069 3069 3069 3076 3071 3072 3074 3078 3080 3083 3087 3089 3090 3091 3093 3097 3097 3095 3102 3108 3110 3112 3114 3114 3112 3117 3122 3125 3127 3129 3130 3133
3093 3091 3090 3088 3086 3084 3082 3080 3078 3075 3071 3068 3064 3062 3063 3065 3067 3063 3063 3067 3069 3072 3074 3077 3079 3082 3083 3086 3091 3088 3090 3094 3100 3102 3106 3107 3105 3105 3104 3113 3119 3120 3121 3124 3124
3093 3091 3089 3087 3085 3083 3080 3077 3075 3071 3067 3063 3060 3058 3056 3059 3058 3058 3057 3059 3061 3062 3063 3067 3071 3076 3075 3077 3081 3083 3084 3088 3090 3095 3098 3100 3100 3100 3097 3112 3110 3111 3112 3116 3116
3093 3091 3089 3087 3084 3081 3079 3075 3071 3067 3064 3060 3056 3053 3054 3052 3049 3049 3048 3050 3050 3050 3053 3058 3063 3066 3065 3067 3072 3075 3077 3078 3081 3087 3088 3096 3087 3081 3096 3103 3102 3105 3106 3106 3108
3093 3091 3088 3085 3082 3079 3077 3073 3068 3064 3060 3056 3052 3051 3050 3048 3045 3043 3040 3040 3042 3041 3045 3050 3054 3056 3057 3059 3063 3067 3070 3069 3071 3079 3083 3089 3061 3081 3090 3092 3093 3097 3098 3098 3100
3093 3091 3088 3084 3081 3078 3075 3070 3065 3060 3056 3052 3050 3048 3048 3047 3043 3041 3039 3037 3035 3034 3035 3044 3044 3047 3051 3053 3055 3057 3055 3056 3065 3071 3076 3078 3052 3071 3080 3087 3086 3088 3089 3089 3090
3093 3089 3087 3083 3079 3075 3073 3070 3064 3059 3055 3050 3047 3048 3046 3043 3041 3038 3036 3034 3033 3031 3032 3034 3036 3038 3040 3043 3037 3042 3046 3050 3055 3060 3066 3068 3050 3067 3074 3077 3074 3077 3079 3079 3080
3091 3088 3085 3081 3077 3073 3070 3068 3066 3059 3052 3048 3047 3045 3042 3041 3038 3036 3031 3029 3030 3029 3028 3030 3031 3024 3029 3035 3038 3043 3044 3045 3050 3055 3058 3057 3052 3059 3063 3064 3063 3064 3065 3067 3068
3089 3086 3082 3078 3074 3070 3064 3059 3055 3054 3051 3047 3046 3043 3040 3036 3032 3032 3028 3025 3025 3026 3026 3028 3020 3027 3030 3032 3035 3039 3040 3041 3045 3050 3050 3050 3044 3046 3050 3051 3055 3056 3056 3058 3060
3088 3084 3080 3076 3072 3067 3063 3060 3056 3052 3050 3047 3045 3042 3039 3036 3031 3028 3026 3022 3022 3024 3024 3023 3022 3024 3027 3029 3031 3033 3035 3038 3043 3044 3043 3042 3033 3038 3039 3042 3045 3046 3047 3048 3051
3085 3082 3078 3074 3073 3066 3062 3058 3055 3051 3047 3047 3044 3041 3038 3033 3030 3027 3025 3024 3021 3019 3020 3018 3019 3020 3021 3023 3027 3027 3031 3034 3038 3042 3039 3045 3028 3027 3029 3028 3033 3035 3039 3040 3042
3082 3079 3075 3072 3069 3066 3062 3057 3053 3051 3050 3045 3042 3040 3035 3034 3029 3024 3022 3018 3017 3015 3016 3013 3014 3016 3016 3018 3020 3020 3028 3032 3037 3037 3039 3039 3041 3002 3021 3018 3022 3028 3030 3033 3035
3080 3077 3073 3070 3066 3063 3059 3056 3052 3052 3046 3043 3041 3037 3033 3031 3026 3021 3017 3014 3012 3010 3006 3004 3007 3011 3012 3014 3017 3020 3023 3028 3032 3034 3031 3032 3043 2992 3011 3010 3017 3020 3020 3023 3027
3077 3073 3070 3066 3064 3060 3057 3054 3053 3049 3048 3043 3037 3035 3032 3028 3024 3019 3014 3011 3010 3007 3001 3000 2999 3003 3007 3011 3013 3016 3018 3022 3029 3030 3021 3023 3034 2996 3001 3004 3011 3015 3018 3019 3021
3074 3071 3067 3064 3061 3058 3054 3052 3050 3048 3045 3042 3038 3034 3031 3027 3021 3017 3013 3010 3008 3006 3002 2999 2997 2997 3000 3002 3007 3010 3013 3012 3016 3019 3015 3023 3011 2993 2999 3006 3009 3014 3017 3018 3019
3072 3068 3065 3062 3059 3056 3053 3050 3049 3047 3044 3040 3035 3031 3029 3026 3023 3017 3013 3011 3008 3004 3002 2997 2994 2991 2994 2998 3003 3006 3006 3011 3011 3011 3013 3003 2997 2998 2999 3003 3008 3012 3012 3013 3014
3071 3066 3063 3060 3057 3054 3051 3049 3047 3045 3041 3039 3035 3032 3028 3023 3021 3018 3013 3011 3008 3006 3002 2999 2995 2993 2991 2996 2998 3001 3004 3008 3010 3011 3010 2996 2995 2993 2996 2998 3004 3007 3007 3007 3008
3069 3064 3061 3058 3055 3052 3048 3046 3043 3042 3039 3037 3033 3030 3027 3023 3020 3017 3013 3011 3008 3006 3003 3000 2998 2996 2995 2995 2996 2998 2999 3002 3005 3005 3001 2997 2990 2986 2992 2994 2996 2998 3001 3003 3004
3065 3062 3059 3055 3054 3049 3046 3043 3040 3038 3037 3033 3029 3027 3025 3022 3018 3016 3012 3010 3007 3004 3002 3000 2997 2993 2992 2994 2995 2996 2997 2998 2999 2999 2997 2996 2988 2984 2987 2989 2991 2994 2996 2998 2998
3063 3060 3056 3053 3051 3047 3043 3040 3037 3035 3033 3030 3028 3026 3023 3020 3017 3012 3009 3006 3004 3003 3002 3000 2997 2995 2991 2992 2991 2993 2994 2995 2996 2996 2991 2993 2978 2983 2985 2986 2987 2990 2991 2993 2992
3061 3058 3054 3050 3048 3044 3040 3038 3034 3032 3029 3027 3024 3022 3019 3015 3014 3007 3004 3002 3000 3000 3000 2998 2995 2995 2994 2992 2992 2991 2991 2991 2991 2990 2987 2976 2981 2983 2981 2981 2984 2986 2989 2989 2989
3059 3056 3053 3051 3047 3042 3038 3035 3032 3029 3027 3024 3022 3020 3017 3010 3006 3001 3000 2998 2996 2995 2992 2993 2990 2991 2990 2988 2988 2986 2985 2985 2983 2982 2981 2975 2979 2982 2976 2979 2982 2984 2987 2986 2987
3058 3054 3051 3047 3044 3040 3037 3033 3030 3028 3025 3022 3018 3014 3012 3007 3003 2995 2994 2992 2990 2990 2989 2989 2988 2986 2983 2984 2982 2979 2977 2976 2973 2974 2969 2971 2967 2977 2978 2978 2978 2983 2985 2985 2986
3053 3051 3048 3046 3041 3038 3036 3032 3028 3025 3021 3019 3014 3009 3004 3001 2996 2990 2986 2984 2983 2984 2985 2986 2984 2984 2979 2978 2976 2971 2966 2966 2964 2963 2964 2961 2967 2976 2976 2976 2978 2979 2982 2983 2983
Wind_Speed
21 23 24 25 26 27 28 28 29 30 32 32 34 35 35 36 35 35 34 29 33 36 37 34 34 33 31 30 28 29 34 39 37 33 28 18 16 21 16 12 6 6 6 8 3
14 16 17 19 20 21 22 22 23 25 27 30 32 33 34 36 37 34 33 31 32 38 40 38 37 34 38 35 35 36 41 41 33 29 26 23 20 22 25 17 14 9 9 5 11
9 10 11 13 14 16 18 20 22 22 22 23 26 29 31 34 33 33 32 33 33 38 42 41 40 40 41 41 41 43 48 35 30 30 28 26 26 24 31 32 27 20 19 16 13
11 11 11 12 12 12 14 16 17 19 21 23 26 25 26 27 17 18 22 26 33 40 42 42 42 45 48 49 46 47 48 42 35 32 32 31 28 35 34 32 33 29 33 28 26
10 10 11 12 13 14 15 17 17 17 17 20 23 25 24 23 20 28 32 27 25 32 40 43 44 47 50 51 48 51 51 47 42 38 37 38 36 35 40 32 35 38 40 38 40
10 12 13 14 15 16 19 21 21 19 19 21 23 25 27 25 19 20 25 29 30 34 34 39 44 47 50 52 52 53 52 49 46 45 42 42 44 42 48 42 48 43 44 41 48
11 12 14 14 14 16 19 21 22 20 20 22 24 27 27 25 21 21 26 28 31 37 38 37 35 44 53 50 52 53 50 46 50 50 47 42 53 59 47 42 44 41 43 45 46
11 13 15 16 17 18 19 18 20 23 23 23 23 27 26 15 13 13 20 26 31 38 42 35 34 40 48 47 48 42 48 52 54 47 46 41 64 55 45 44 43 42 41 44 50
11 14 17 18 18 19 18 16 19 22 19 19 15 21 16 21 22 22 21 21 25 35 36 39 35 36 42 39 34 38 41 48 49 49 38 42 65 49 40 42 48 50 47 47 49
13 16 17 19 20 20 19 15 17 19 15 16 15 13 17 19 16 22 21 22 20 23 31 35 34 36 43 42 39 38 44 35 36 35 28 39 62 50 46 44 51 52 55 54 53
14 17 19 21 22 23 23 18 16 17 14 13 12 14 21 20 16 17 22 26 20 18 15 24 32 45 48 49 41 23 27 20 29 24 19 34 47 45 41 44 47 49 52 56 59
16 17 21 22 24 25 28 27 24 20 10 14 10 13 19 21 22 14 22 19 26 17 8 19 35 38 35 32 41 35 22 18 16 21 23 30 40 43 41 48 50 49 48 48 47
18 19 20 22 24 25 26 24 22 20 14 5 10 13 20 23 24 21 22 16 17 22 18 18 24 25 31 25 22 26 34 33 25 17 24 26 41 45 47 48 49 49 49 48 45
19 19 20 20 23 24 24 23 22 18 10 8 11 13 22 23 14 18 14 12 13 22 25 22 19 25 13 26 29 23 19 12 13 15 21 27 20 39 46 50 51 52 47 45 44
20 19 20 20 22 22 22 21 19 14 4 14 12 22 19 15 20 18 15 17 18 18 23 33 24 14 21 20 15 32 32 27 21 18 19 25 16 54 37 46 50 47 45 43 41
20 19 20 21 19 21 20 18 17 5 4 14 14 19 16 17 19 20 15 14 18 22 24 32 30 25 15 10 14 7 13 16 17 20 15 24 18 59 44 50 45 34 35 35 31
20 20 21 20 19 19 20 17 6 2 11 10 24 25 15 20 22 22 18 10 13 12 9 10 20 29 31 22 13 15 9 4 4 5 11 19 20 51 6 6 5 4 6 1 8
21 19 19 20 17 18 20 13 1 6 15 19 21 22 12 19 21 24 20 10 8 10 8 7 8 19 21 29 19 16 18 6 6 5 5 19 20 29 28 43 29 22 14 15 4
20 18 16 18 16 17 19 6 5 12 13 21 25 13 14 20 21 21 19 10 14 13 7 7 2 3 3 19 19 20 21 25 4 6 3 10 40 44 14 20 20 14 10 11 14
19 16 14 17 14 15 16 12 13 12 14 16 18 9 17 25 17 18 11 6 11 12 13 9 6 10 2 9 10 13 19 18 10 4 5 7 17 20 7 5 22 20 23 18 17
19 15 13 15 16 17 15 13 13 9 15 15 17 20 17 20 18 19 8 14 9 15 15 11 9 6 6 5 11 16 18 12 16 21 4 2 5 4 0 10 11 12 12 11 12
22 15 15 15 15 18 19 14 13 11 12 14 13 15 14 19 22 24 16 15 19 18 16 8 7 9 18 16 11 11 14 13 18 9 27 13 13 9 5 6 7 9 12 11 10
24 17 16 13 12 20 20 15 12 12 14 14 8 9 12 15 18 13 20 21 19 16 7 13 4 7 6 3 12 20 20 21 21 17 20 7 13 15 9 6 7 3 8 11 8
26 19 18 11 20 18 21 14 13 14 11 15 13 12 21 23 19 14 24 14 11 14 20 16 15 14 9 5 9 12 12 17 17 18 23 40 31 38 28 24 14 9 17 19 7
24 21 21 18 14 16 16 16 15 16 15 14 10 19 24 28 30 20 11 23 22 24 13 14 19 18 21 23 22 24 25 25 26 31 21 36 33 33 54 47 42 33 25 20 6
22 23 23 18 19 16 14 18 14 16 18 12 22 26 25 29 24 29 26 27 29 20 15 12 14 16 24 24 24 27 26 29 35 35 45 42 46 36 45 44 43 35 23 20 6
25 22 23 20 20 18 14 16 19 17 11 18 23 26 28 23 24 28 24 17 21 23 17 16 15 12 10 8 12 20 29 31 36 43 39 42 43 36 40 45 43 36 25 20 7
Wind_Direction
276 277 277 278 278 278 279 279 279 277 277 275 273 271 267 263 260 258 257 252 240 243 244 241 239 236 237 237 238 237 232 239 236 237 236 244 226 210 204 179 134 145 170 143 183
282 282 282 284 286 289 290 289 286 283 280 278 277 275 274 271 266 263 257 251 242 238 241 237 237 234 235 233 233 233 235 241 242 242 238 232 239 224 225 220 212 189 162 181 160
307 305 307 306 305 306 304 302 303 304 303 296 286 279 276 274 274 272 263 251 242 241 240 239 235 233 233 232 231 236 243 250 247 250 252 236 240 238 240 242 243 237 232 240 238
332 334 333 334 334 333 329 326 328 325 314 306 299 293 285 281 283 277 263 251 242 238 238 236 233 233 233 232 231 236 242 243 246 249 251 247 245 244 241 257 262 263 249 247 257
358 8 14 17 16 15 9 1 358 344 328 317 310 305 300 294 288 262 261 255 247 241 236 233 232 233 236 238 235 236 241 245 245 244 245 249 242 252 250 253 265 267 267 252 252
41 37 28 18 15 9 359 358 355 345 332 323 316 311 307 319 295 269 259 254 245 241 242 234 234 233 235 238 238 242 245 245 247 247 244 249 253 252 250 256 253 251 258 259 251
33 23 19 7 2 360 359 355 356 355 350 337 322 314 320 317 305 283 255 245 239 235 233 237 232 229 231 235 238 240 244 248 246 247 250 248 255 246 249 251 255 253 257 257 250
14 9 7 7 356 357 360 355 1 359 1 357 342 341 338 321 302 286 259 238 234 232 230 228 230 234 232 232 237 238 242 245 242 246 247 247 254 254 250 247 250 256 255 254 251
359 359 359 359 355 353 356 349 346 350 359 2 5 357 5 334 305 290 275 259 248 236 231 222 231 231 228 225 228 232 236 241 245 243 244 244 252 254 258 258 258 256 257 257 256
345 346 351 351 348 347 349 345 331 345 352 3 3 13 1 358 340 322 299 270 258 256 232 214 219 227 221 214 219 221 232 236 243 242 229 240 254 257 260 260 260 261 259 257 257
336 336 340 346 344 343 341 346 343 353 4 20 27 13 8 350 337 315 313 266 259 264 262 218 217 222 226 226 220 239 230 234 237 229 233 241 256 261 264 259 260 258 257 257 256
328 333 332 339 341 343 347 348 350 347 26 44 25 8 356 344 346 347 321 291 246 257 240 225 233 229 234 234 229 226 228 231 225 219 235 244 252 255 256 258 259 260 260 261 261
325 329 329 333 338 340 342 340 339 333 324 353 9 343 345 331 336 345 336 329 252 255 251 269 244 250 242 241 235 238 239 249 256 236 226 265 263 256 255 258 258 259 260 261 261
326 328 328 326 330 335 335 332 332 326 306 310 317 336 326 325 317 332 314 296 276 263 257 278 264 240 241 238 236 237 231 232 244 259 261 262 285 273 259 257 255 255 255 258 260
336 335 328 328 326 328 334 329 326 323 333 334 333 334 323 324 326 327 293 277 276 271 260 253 255 251 249 246 243 250 250 246 256 255 272 260 289 271 272 265 260 259 262 265 266
334 334 329 331 328 328 328 324 324 315 272 321 324 347 341 334 337 323 307 260 268 273 269 253 240 236 240 229 236 223 208 223 237 241 244 245 225 274 267 266 273 275 269 262 261
334 337 335 337 332 330 326 332 309 219 316 314 328 342 336 334 338 346 319 305 261 299 275 265 248 237 231 243 213 214 191 139 178 194 233 230 207 244 155 238 224 26 221 146 243
329 332 336 339 334 333 335 342 267 299 315 314 324 332 328 342 343 341 338 303 306 285 300 268 244 233 231 226 224 228 213 195 184 177 238 213 226 238 258 236 254 284 265 295 287
337 330 331 338 334 339 347 343 352 324 321 321 321 331 324 328 329 333 332 315 340 339 338 303 283 150 191 214 218 221 218 214 261 288 256 215 241 254 259 249 244 257 283 255 263
346 333 325 339 349 350 354 352 341 330 313 314 303 297 312 322 336 340 323 335 331 335 336 308 295 333 173 176 198 203 222 205 197 207 241 250 243 232 153 303 229 257 277 263 271
350 336 327 335 348 354 353 339 322 340 321 307 300 290 300 314 321 331 291 318 313 325 340 283 265 241 238 229 203 221 234 218 220 226 220 307 259 212 167 216 242 243 256 279 269
357 349 336 334 344 347 339 326 311 313 320 319 298 287 286 306 304 313 290 300 309 304 311 285 291 273 259 251 258 208 233 235 233 237 239 269 261 145 312 270 290 250 259 287 291
359 355 344 336 326 334 338 334 320 318 327 336 320 301 306 293 311 292 294 311 300 290 305 314 285 312 308 235 232 239 245 247 239 246 249 242 231 241 202 210 197 314 342 328 332
353 359 352 345 337 327 328 337 335 331 328 329 312 318 320 320 311 284 289 293 297 291 300 287 271 253 245 266 296 271 239 239 242 245 250 246 256 250 253 264 259 291 332 341 340
348 349 353 336 345 336 330 332 340 337 328 328 317 320 316 310 309 308 277 296 269 303 281 252 260 271 269 269 270 274 261 241 236 241 244 255 259 261 252 268 278 284 312 337 321
340 343 344 349 344 349 345 337 337 337 326 313 316 315 309 300 303 298 298 293 292 285 288 268 253 261 269 279 271 270 262 250 246 246 248 255 257 258 257 267 269 277 297 324 298
333 334 341 350 346 339 342 341 341 329 334 328 320 313 315 325 315 308 299 301 276 267 254 253 258 273 273 283 279 271 266 252 255 253 248 248 253 265 270 267 268 274 281 314 305